GW719 Weather Reports


time (UTC)temp
C
wind
direction
speed
KPH
gust
KPH
rain 1hr
cm
rain 24hr
cm
rain mn
cm
humidity
%
barometer
mb
20260906195517 39 197 3.2 8.0 0.00 0.00 0.00 34 1012.0
20260906194517 39 275 3.2 11.3 0.00 0.00 0.00 33 1012.1
20260906193517 39 212 6.4 12.9 0.00 0.00 0.00 34 1012.2
20260906192517 39 174 3.2 8.0 0.00 0.00 0.00 34 1012.3
20260906191518 39 207 4.8 9.7 0.00 0.00 0.00 34 1012.5
20260906190518 38 96 4.8 9.7 0.00 0.00 0.00 35 1012.7
20260906185518 38 79 4.8 9.7 0.00 0.00 0.00 35 1012.8
20260906184518 38 77 6.4 11.3 0.00 0.00 0.00 35 1012.8
20260906183538 38 73 8.0 12.9 0.00 0.00 0.00 35 1013.1
20260906182518 38 81 4.8 9.7 0.00 0.00 0.00 35 1013.2
20260906181538 38 62 4.8 9.7 0.00 0.00 0.00 35 1013.3
20260906180518 38 150 3.2 6.4 0.00 0.00 0.00 36 1013.6
20260906175519 37 98 3.2 6.4 0.00 0.00 0.00 37 1013.7
20260906174520 38 93 4.8 9.7 0.00 0.00 0.00 37 1013.9
20260906173516 38 66 3.2 4.8 0.00 0.00 0.00 36 1014.1
20260906172516 37 45 3.2 4.8 0.00 0.00 0.00 38 1014.1
20260906171536 37 67 3.2 4.8 0.00 0.00 0.00 38 1014.4
20260906170518 37 72 6.4 11.3 0.00 0.00 0.00 39 1014.5
20260906165517 37 72 4.8 8.0 0.00 0.00 0.00 40 1014.6
20260906164517 36 65 4.8 8.0 0.00 0.00 0.00 41 1014.9
20260906163537 36 45 3.2 6.4 0.00 0.00 0.00 43 1014.9
20260906162537 36 35 1.6 6.4 0.00 0.00 0.00 44 1014.8
20260906161517 36 73 3.2 6.4 0.00 0.00 0.00 45 1014.8
20260906160517 36 58 3.2 4.8 0.00 0.00 0.00 45 1014.9
20260906155518 36 91 3.2 6.4 0.00 0.00 0.00 44 1014.8
20260906154518 36 19 1.6 4.8 0.00 0.00 0.00 43 1014.8
20260906153538 36 44 3.2 6.4 0.00 0.00 0.00 45 1014.8
20260906152518 35 91 3.2 4.8 0.00 0.00 0.00 48 1014.7
20260906151518 35 61 1.6 4.8 0.00 0.00 0.00 49 1014.7
20260906150539 33 65 1.6 4.8 0.00 0.00 0.00 54 1014.6
20260906145538 32 62 1.6 4.8 0.00 0.00 0.00 55 1014.7
20260906144518 31 52 1.6 4.8 0.00 0.00 0.00 61 1014.7
20260906143539 30 47 1.6 3.2 0.00 0.00 0.00 62 1014.6
20260906142516 30 54 1.6 3.2 0.00 0.00 0.00 63 1014.6
20260906141516 30 44 1.6 4.8 0.00 0.00 0.00 63 1014.6
20260906140516 30 52 3.2 4.8 0.00 0.00 0.00 63 1014.5
20260906135517 29 281 0.0 3.2 0.00 0.00 0.00 63 1014.3
20260906134517 28 134 0.0 3.2 0.00 0.00 0.00 65 1014.3
20260906133516 28 157 0.0 3.2 0.00 0.00 0.00 66 1014.3
20260906132516 27 105 0.0 3.2 0.00 0.00 0.00 68 1014.2
20260906131537 27 75 1.6 4.8 0.00 0.00 0.00 71 1014.3
20260906130517 26 75 3.2 4.8 0.00 0.00 0.00 72 1014.3
20260906125518 25 65 0.0 3.2 0.00 0.00 0.00 74 1014.2
20260906124524 25 0.0 0.0 0.00 0.00 0.00 76 1013.9
20260906123524 24 157 0.0 3.2 0.00 0.00 0.00 78 1014.0
20260906122523 24 172 0.0 1.6 0.00 0.00 0.00 79 1013.8
20260906121524 23 160 0.0 3.2 0.00 0.00 0.00 81 1013.7
20260906120524 23 116 0.0 0.0 0.00 0.00 0.00 82 1013.5
20260906115524 24 0.0 0.0 0.00 0.00 0.00 82 1013.5
20260906114524 24 123 0.0 1.6 0.00 0.00 0.00 81 1013.5
20260906113524 24 48 0.0 3.2 0.00 0.00 0.00 81 1013.3
20260906112525 24 0.0 0.0 0.00 0.00 0.00 82 1013.2
20260906111525 24 232 0.0 1.6 0.00 0.00 0.00 83 1013.1
20260906110525 24 111 0.0 1.6 0.00 0.00 0.00 82 1013.2
20260906105525 25 0.0 0.0 0.00 0.00 0.00 81 1013.1
20260906104525 25 0.0 0.0 0.00 0.00 0.00 79 1013.0
20260906103525 25 0.0 0.0 0.00 0.00 0.00 80 1012.9
20260906102526 25 0.0 0.0 0.00 0.00 0.00 80 1013.1
20260906101546 25 0.0 0.0 0.00 0.00 0.00 80 1013.0
20260906100526 25 0.0 0.0 0.00 0.00 0.00 81 1013.1
20260906095526 25 0.0 0.0 0.00 0.00 0.00 81 1013.0
20260906094526 25 0.0 0.0 0.00 0.00 0.00 83 1013.1
20260906093547 25 75 0.0 1.6 0.00 0.00 0.00 83 1012.8
20260906092527 25 97 1.6 3.2 0.00 0.00 0.00 82 1012.8
20260906091527 25 80 1.6 3.2 0.00 0.00 0.00 81 1012.7
20260906090528 25 0.0 0.0 0.00 0.00 0.00 78 1012.6
20260906085607 25 123 0.0 1.6 0.00 0.00 0.00 76 1012.7
20260906084527 25 62 0.0 1.6 0.00 0.00 0.00 75 1012.6
20260906083527 25 0.0 0.0 0.00 0.00 0.00 75 1012.5
20260906082528 25 0.0 0.0 0.00 0.00 0.00 74 1012.4
20260906081548 25 0.0 0.0 0.00 0.00 0.00 73 1012.4
20260906080528 25 0.0 0.0 0.00 0.00 0.00 73 1012.5
20260906075529 25 50 0.0 1.6 0.00 0.00 0.00 74 1012.4
20260906074528 26 0.0 0.0 0.00 0.00 0.00 78 1012.5
20260906073528 26 0.0 0.0 0.00 0.00 0.00 79 1012.2
20260906072529 26 0.0 0.0 0.00 0.00 0.00 79 1012.5
20260906071549 26 0.0 0.0 0.00 0.00 0.00 79 1012.5
20260906070529 26 0.0 0.0 0.00 0.00 0.00 78 1012.5
20260906065549 26 145 0.0 1.6 0.00 0.00 0.00 78 1012.5
20260906064530 26 148 0.0 1.6 0.00 0.00 0.00 80 1012.5
20260906063549 26 0.0 0.0 0.00 0.00 0.00 79 1012.5
20260906062533 26 0.0 0.0 0.00 0.00 0.00 79 1012.5
20260906061530 26 0.0 0.0 0.00 0.00 0.00 78 1012.5
20260906060518 26 59 0.0 1.6 0.00 0.00 0.00 78 1012.6
20260906055519 27 48 0.0 1.6 0.00 0.00 0.00 78 1012.6
20260906054519 27 38 0.0 1.6 0.00 0.00 0.00 77 1012.6
20260906053516 27 0.0 0.0 0.00 0.00 0.00 72 1012.3
20260906052516 27 54 0.0 1.6 0.00 0.00 0.00 71 1012.5
20260906051516 27 56 0.0 1.6 0.00 0.00 0.00 70 1012.4
20260906050516 27 72 0.0 1.6 0.00 0.00 0.00 71 1012.3
20260906045517 27 75 0.0 1.6 0.00 0.00 0.00 70 1012.3
20260906044517 28 102 0.0 3.2 0.00 0.00 0.00 70 1012.4
20260906043517 27 182 1.6 3.2 0.00 0.00 0.00 70 1012.4
20260906042517 28 59 0.0 1.6 0.00 0.00 0.00 69 1012.3
20260906041517 28 51 0.0 1.6 0.00 0.00 0.00 70 1012.4
20260906040517 28 44 0.0 1.6 0.00 0.00 0.00 70 1012.3
20260906035558 28 48 0.0 1.6 0.00 0.00 0.00 70 1012.3
20260906034518 29 52 0.0 3.2 0.00 0.00 0.00 68 1012.2
20260906033518 29 46 0.0 1.6 0.00 0.00 0.00 62 1012.1
20260906032518 29 75 0.0 3.2 0.00 0.00 0.00 61 1012.1
20260906031518 30 67 0.0 1.6 0.00 0.00 0.00 60 1012.3
20260906030518 30 66 1.6 3.2 0.00 0.00 0.00 59 1012.3
20260906025519 30 70 0.0 1.6 0.00 0.00 0.00 57 1012.2
20260906024519 31 57 0.0 1.6 0.00 0.00 0.00 55 1012.0
20260906023519 31 87 0.0 1.6 0.00 0.00 0.00 55 1011.8
20260906022516 31 147 0.0 3.2 0.00 0.00 0.00 55 1011.7
20260906021516 31 139 0.0 3.2 0.00 0.00 0.00 55 1011.6
20260906020536 32 100 1.6 3.2 0.00 0.00 0.00 53 1011.5
20260906015517 32 73 0.0 3.2 0.00 0.00 0.00 51 1011.5
20260906014517 32 61 0.0 1.6 0.00 0.00 0.00 49 1011.4
20260906013538 33 66 1.6 1.6 0.00 0.00 0.00 47 1011.2
20260906012517 33 57 0.0 1.6 0.00 0.00 0.00 45 1011.2
20260906011517 34 53 1.6 3.2 0.00 0.00 0.00 44 1011.1
20260906010517 35 63 0.0 3.2 0.00 0.00 0.00 42 1011.1
20260906005518 35 16 1.6 3.2 0.00 0.00 0.00 41 1011.1
20260906004518 36 65 1.6 3.2 0.00 0.00 0.00 39 1011.0
20260906003518 36 81 3.2 4.8 0.00 0.00 0.00 39 1011.0
20260906002559 36 83 3.2 4.8 0.00 0.00 0.00 38 1011.0
20260906001519 36 81 4.8 8.0 0.00 0.00 0.00 38 1010.9
20260906000519 36 74 8.0 12.9 0.00 0.00 0.00 38 1010.9
20260905235519 37 86 4.8 9.7 0.00 0.00 0.00 38 1010.8
20260905234516 37 95 4.8 8.0 0.00 0.00 0.00 38 1010.7
20260905233516 37 93 4.8 8.0 0.00 0.00 0.00 37 1010.7
20260905232517 37 74 8.0 11.3 0.00 0.00 0.00 37 1010.6
20260905231517 37 98 1.6 4.8 0.00 0.00 0.00 37 1010.7
20260905230517 37 133 3.2 4.8 0.00 0.00 0.00 37 1010.6
20260905225517 37 81 4.8 11.3 0.00 0.00 0.00 36 1010.6
20260905224517 37 93 4.8 8.0 0.00 0.00 0.00 36 1010.5
20260905223537 38 76 8.0 12.9 0.00 0.00 0.00 36 1010.6
20260905222517 38 111 3.2 6.4 0.00 0.00 0.00 35 1010.7
20260905221518 38 108 6.4 12.9 0.00 0.00 0.00 35 1010.8
20260905220518 38 157 3.2 6.4 0.00 0.00 0.00 35 1010.9
20260905215518 38 84 4.8 6.4 0.00 0.00 0.00 35 1010.9
20260905214518 38 103 6.4 12.9 0.00 0.00 0.00 37 1011.0
20260905213518 38 79 6.4 12.9 0.00 0.00 0.00 36 1011.3
20260905212538 38 76 3.2 6.4 0.00 0.00 0.00 35 1011.3
20260905211519 37 79 4.8 9.7 0.00 0.00 0.00 37 1011.4
20260905210519 37 87 6.4 9.7 0.00 0.00 0.00 37 1011.6
20260905205519 38 108 4.8 9.7 0.00 0.00 0.00 37 1011.7
20260905204516 38 134 4.8 9.7 0.00 0.00 0.00 36 1011.8
20260905203516 37 88 6.4 12.9 0.00 0.00 0.00 36 1012.1
20260905202516 37 93 4.8 14.5 0.00 0.00 0.00 37 1012.2
20260905201537 38 216 4.8 14.5 0.00 0.00 0.00 35 1012.3
20260905200517 37 162 4.8 11.3 0.00 0.00 0.00 35 1012.5